Time,TemperatureF,DewpointF,PressureIn,WindDirection,WindDirectionDegrees,WindSpeedMPH,WindSpeedGustMPH,Humidity,HourlyPrecipIn,Conditions,Clouds,dailyrainin,SoftwareType,DateUTC
2013-05-28 07:40:00,58.0,54.5,29.13,ESE,112,0.0,0.0,88,0.00,,,0.02,Weather View 32 v70,2013-05-28 11:40:00,
2013-05-28 07:45:00,57.0,53.8,29.13,ESE,112,0.0,0.0,89,0.00,,,0.02,Weather View 32 v70,2013-05-28 11:45:00,
2013-05-28 07:50:00,56.0,53.4,29.14,ESE,112,0.0,0.0,91,0.00,,,0.02,Weather View 32 v70,2013-05-28 11:50:00,
2013-05-28 08:00:00,56.0,54.3,29.14,ESE,112,0.0,0.0,94,0.00,,,0.03,Weather View 32 v70,2013-05-28 12:00:00,
2013-05-28 08:05:00,57.0,55.9,29.14,ESE,112,0.0,0.0,96,0.00,,,0.03,Weather View 32 v70,2013-05-28 12:05:00,
2013-05-28 08:10:00,57.0,56.2,29.14,ESE,112,0.0,0.0,97,0.00,,,0.03,Weather View 32 v70,2013-05-28 12:10:00,
2013-05-28 08:15:00,57.0,55.9,29.14,West,270,0.0,0.0,96,0.00,,,0.03,Weather View 32 v70,2013-05-28 12:15:00,
2013-05-28 08:20:00,57.0,56.2,29.14,West,270,0.0,0.0,97,0.00,,,0.03,Weather View 32 v70,2013-05-28 12:20:00,
2013-05-28 08:30:00,56.0,56.0,29.14,West,270,0.0,0.0,100,0.00,,,0.03,Weather View 32 v70,2013-05-28 12:30:00,
2013-05-28 09:25:00,55.0,55.0,29.16,WNW,292,0.0,0.0,100,0.00,,,0.03,Weather View 32 v70,2013-05-28 13:25:00,
2013-05-28 09:45:00,57.0,57.0,29.15,WNW,292,0.0,0.0,100,0.00,,,0.03,Weather View 32 v70,2013-05-28 13:45:00,
2013-05-28 09:55:00,57.0,57.0,29.14,WNW,292,0.0,0.0,100,0.00,,,0.03,Weather View 32 v70,2013-05-28 13:55:00,
2013-05-28 10:00:00,57.0,57.0,29.14,WNW,292,0.0,0.0,100,0.00,,,0.04,Weather View 32 v70,2013-05-28 14:00:00,
2013-05-28 10:05:00,57.0,57.0,29.14,ESE,112,0.0,0.0,100,0.00,,,0.04,Weather View 32 v70,2013-05-28 14:05:00,
2013-05-28 10:15:00,56.0,56.0,29.14,SE,135,0.0,0.0,100,0.00,,,0.05,Weather View 32 v70,2013-05-28 14:15:00,
2013-05-28 10:20:00,56.0,56.0,29.14,SE,135,0.0,0.0,100,0.00,,,0.05,Weather View 32 v70,2013-05-28 14:20:00,
2013-05-28 10:30:00,56.0,56.0,29.14,SW,225,0.0,0.0,100,0.00,,,0.06,Weather View 32 v70,2013-05-28 14:30:00,
2013-05-28 10:35:00,56.0,56.0,29.14,SW,225,0.0,0.0,100,0.00,,,0.06,Weather View 32 v70,2013-05-28 14:35:00,
2013-05-28 10:45:00,56.0,56.0,29.13,SW,225,0.0,0.0,100,0.03,,,0.06,Weather View 32 v70,2013-05-28 14:45:00,
2013-05-28 10:50:00,57.0,57.0,29.13,SW,225,0.0,0.0,100,0.03,,,0.06,Weather View 32 v70,2013-05-28 14:50:00,
2013-05-28 10:55:00,57.0,57.0,29.13,SW,225,0.0,0.0,100,0.03,,,0.06,Weather View 32 v70,2013-05-28 14:55:00,
2013-05-28 11:05:00,57.0,57.0,29.13,SW,225,0.0,0.0,100,0.02,,,0.06,Weather View 32 v70,2013-05-28 15:05:00,
2013-05-28 11:10:00,58.0,58.0,29.13,SW,225,0.0,0.0,100,0.01,,,0.06,Weather View 32 v70,2013-05-28 15:10:00,
2013-05-28 11:20:00,59.0,59.0,29.11,ESE,112,0.0,0.0,100,0.01,,,0.06,Weather View 32 v70,2013-05-28 15:20:00,
2013-05-28 11:25:00,60.0,60.0,29.11,SW,225,0.0,0.0,100,0.00,,,0.06,Weather View 32 v70,2013-05-28 15:25:00,
2013-05-28 11:35:00,61.0,61.0,29.10,NW,315,0.0,6.0,100,0.00,,,0.06,Weather View 32 v70,2013-05-28 15:35:00,
2013-05-28 11:40:00,61.0,61.0,29.11,NW,315,0.0,6.0,100,0.00,,,0.06,Weather View 32 v70,2013-05-28 15:40:00,
2013-05-28 11:50:00,61.0,61.0,29.10,ENE,67,0.0,6.0,100,0.00,,,0.06,Weather View 32 v70,2013-05-28 15:50:00,
2013-05-28 11:55:00,61.0,60.7,29.10,SE,135,1.0,6.0,99,0.00,,,0.06,Weather View 32 v70,2013-05-28 15:55:00,
2013-05-28 12:05:00,60.0,60.0,29.11,East,90,0.0,6.0,100,0.00,,,0.06,Weather View 32 v70,2013-05-28 16:05:00,
2013-05-28 12:15:00,60.0,60.0,29.10,SE,135,1.0,6.0,100,0.00,,,0.06,Weather View 32 v70,2013-05-28 16:15:00,